This is the latest recevied weather packets stored in our database for station/object K3RUP-1. If no packets are shown the sender has not sent any weather packets the latest 10 day(s).
| Time | Temp. | Humidity | Pressure | Rain* | Wind** | Luminosity | Snow |
|---|---|---|---|---|---|---|---|
| 1777921146 | 23.89° C | 37% | 1011 hPa | 0 mm | - | 189 W/m² | - |
| 1777920843 | 23.89° C | 39% | 1010.9 hPa | 0 mm | - | 636 W/m² | - |
| 1777920539 | 23.89° C | 38% | 1011.4 hPa | 0 mm | - | 684 W/m² | - |
| 1777920235 | 23.89° C | 40% | 1011.2 hPa | 0 mm | - | 652 W/m² | - |
| 1777919931 | 23.33° C | 40% | 1011.4 hPa | 0 mm | - | 633 W/m² | - |
| 1777919629 | 23.33° C | 39% | 1011.5 hPa | 0 mm | - | 582 W/m² | - |
| 1777919326 | 23.89° C | 36% | 1011.4 hPa | 0 mm | - | 626 W/m² | - |
| 1777919023 | 23.89° C | 39% | 1011.3 hPa | 0 mm | - | 693 W/m² | - |
| 1777918720 | 22.78° C | 39% | 1011.7 hPa | 0 mm | - | 663 W/m² | - |
| 1777918417 | 23.33° C | 37% | 1011.7 hPa | 0 mm | - | 684 W/m² | - |
| 1777918116 | 23.33° C | 37% | 1011.6 hPa | 0 mm | - | 705 W/m² | - |
| 1777917814 | 23.89° C | 39% | 1011.7 hPa | 0 mm | - | 688 W/m² | - |
| 1777917512 | 23.89° C | 38% | 1012 hPa | 0 mm | - | 663 W/m² | - |
| 1777917208 | 23.33° C | 38% | 1011.8 hPa | 0 mm | - | 697 W/m² | - |
| 1777916907 | 23.89° C | 38% | 1011.8 hPa | 0 mm | - | 717 W/m² | - |
| 1777916604 | 22.78° C | 40% | 1011.7 hPa | 0 mm | - | 747 W/m² | - |
| 1777916301 | 22.78° C | 39% | 1011.9 hPa | 0 mm | - | 727 W/m² | - |
| 1777915997 | 22.78° C | 39% | 1011.9 hPa | 0 mm | - | 735 W/m² | - |
| 1777915695 | 22.78° C | 41% | 1012.2 hPa | 0 mm | - | 733 W/m² | - |
| 1777915391 | 22.78° C | 42% | 1012.3 hPa | 0 mm | - | 717 W/m² | - |
| 1777915087 | 22.78° C | 40% | 1012.2 hPa | 0 mm | - | 718 W/m² | - |
| 1777914784 | 22.78° C | 41% | 1012.4 hPa | 0 mm | - | 730 W/m² | - |
| 1777914481 | 22.78° C | 41% | 1012.2 hPa | 0 mm | - | 710 W/m² | - |
| 1777914178 | 22.78° C | 42% | 1012.4 hPa | 0 mm | - | 648 W/m² | - |
| 1777913874 | 22.78° C | 41% | 1012.3 hPa | 0 mm | - | 608 W/m² | - |
* Rain latest hour (hover to see other rain measurements)
** Current wind speed in m/s (hover to see current wind gust speed)